User: anonymous   Login
Location: New Frontier Mobile Home Park
(32.8448°N, 116.9675°W)
Time: 09:34:20
(UTC+00:00)
Language:

Cosmos 1459 Rocket - Orbit

View from above orbital plane
View from above orbital plane
View from above satellite
View from above satellite

Ground track
Ground track

The orbit data is extracted from the following two-line orbital elements,

1 14059U 83042B   20269.90930415 +.00000123 +00000-0 +10454-3 0  9999
2 14059 082.9688 253.5804 0043515 143.9266 216.4843 13.78699591880381
Epoch (UTC): 25 September 2020 21:49:23
Eccentricity: 0.0043515
inclination: 82.9688°
perigee height: 936 km
apogee height: 1000 km
right ascension of ascending node: 253.5804°
argument of perigee: 143.9266°
revolutions per day: 13.78699591
mean anomaly at epoch: 216.4843°
orbit number at epoch: 88038

The dashed part of the orbit path shows where the satellite is in the earth's shadow,  

DLR